CW1735 Weather Reports


time (UTC)temp
C
wind
direction
speed
KPH
gust
KPH
rain 1hr
cm
rain 24hr
cm
rain mn
cm
humidity
%
barometer
mb
20260506211627 15 203 0.0 0.0 0.00 0.71 0.71 100 1003.6
20260506211056 15 208 0.0 0.0 0.00 0.71 0.71 100 1003.4
20260506205627 15 220 0.0 0.0 0.03 0.71 0.71 100 1003.3
20260506205057 15 236 0.0 0.0 0.03 0.71 0.71 100 1003.3
20260506204628 15 216 0.0 0.0 0.03 0.71 0.71 100 1003.3
20260506204058 15 232 0.0 0.0 0.03 0.71 0.71 100 1003.3
20260506203059 15 216 0.0 0.0 0.03 0.71 0.71 100 1003.3
20260506202559 15 186 0.0 0.0 0.03 0.71 0.71 100 1003.3
20260506202100 15 208 0.0 0.0 0.03 0.71 0.71 100 1003.3
20260506201601 15 172 0.0 0.0 0.03 0.71 0.71 100 1003.3
20260506201101 15 217 0.0 0.0 0.05 0.71 0.71 100 1003.3
20260506200201 15 196 0.0 0.0 0.08 0.71 0.71 100 1003.3
20260506195602 15 205 0.0 0.0 0.05 0.69 0.69 100 1003.4
20260506195102 15 202 0.0 0.0 0.08 0.69 0.69 100 1003.4
20260506194603 15 213 0.0 0.0 0.08 0.69 0.69 100 1003.4
20260506194103 15 113 0.0 0.0 0.10 0.69 0.69 100 1003.9
20260506193604 15 205 0.0 0.0 0.15 0.69 0.69 100 1003.9
20260506193104 15 223 0.0 0.0 0.18 0.69 0.69 100 1003.9
20260506192604 15 213 0.0 0.0 0.20 0.69 0.69 100 1004.0
20260506192104 15 229 0.0 0.0 0.23 0.69 0.69 100 1004.0
20260506191605 15 220 0.0 0.0 0.25 0.69 0.69 100 1004.0
20260506191105 15 206 0.0 0.0 0.25 0.66 0.66 100 1004.1
20260506190606 15 212 0.0 0.0 0.28 0.66 0.66 100 1004.1
20260506185607 15 167 0.0 0.0 0.33 0.64 0.64 100 1004.1
20260506185107 15 216 0.0 0.0 0.30 0.61 0.61 100 1004.1
20260506184607 15 250 0.0 0.0 0.30 0.61 0.61 100 1004.1
20260506184108 15 212 0.0 0.0 0.28 0.58 0.58 100 1004.2
20260506183608 15 189 0.0 0.0 0.23 0.53 0.53 100 1004.2
20260506182110 15 213 0.0 0.0 0.15 0.46 0.46 100 1004.3
20260506181610 15 212 0.0 0.0 0.13 0.43 0.43 100 1004.3
20260506181111 15 192 0.0 0.0 0.10 0.41 0.41 100 1004.4
20260506180612 15 224 0.0 0.0 0.08 0.38 0.38 100 1004.4
20260506175612 15 210 0.0 0.0 0.03 0.30 0.30 100 1004.5
20260506175112 15 172 0.0 0.0 0.03 0.30 0.30 100 1004.5
20260506174613 15 227 0.0 0.0 0.03 0.30 0.30 100 1004.5
20260506173614 15 229 0.0 0.0 0.05 0.30 0.30 100 1004.4
20260506173114 15 185 0.0 0.0 0.05 0.30 0.30 100 1004.4
20260506172615 15 205 0.0 0.0 0.08 0.30 0.30 100 1004.4
20260506171616 15 219 0.0 0.0 0.13 0.30 0.30 100 1004.4
20260506171117 15 209 0.0 0.0 0.15 0.30 0.30 100 1004.5
20260506170616 15 209 0.0 0.0 0.18 0.30 0.30 100 1004.5
20260506165617 15 179 0.0 0.0 0.18 0.28 0.28 100 1004.4
20260506164618 15 160 0.0 0.0 0.20 0.28 0.28 100 1004.4
20260506163619 15 220 0.0 0.0 0.18 0.25 0.25 100 1005.1
20260506163119 15 113 0.0 0.0 0.20 0.25 0.25 100 1005.1
20260506162620 15 203 0.0 0.0 0.18 0.23 0.23 100 1005.6
20260506162121 15 147 0.0 0.0 0.15 0.20 0.20 100 1005.6
20260506161620 15 210 0.0 0.0 0.15 0.18 0.18 100 1005.6
20260506160552 15 193 0.0 0.0 0.13 0.13 0.13 98 1005.7
20260506155552 16 216 0.0 0.0 0.10 0.10 0.10 97 1006.0
20260506155052 16 243 0.0 0.0 0.08 0.08 0.08 97 1006.0
20260506154623 16 213 0.0 0.0 0.08 0.08 0.08 96 1006.0
20260506154125 16 196 0.0 0.0 0.08 0.08 0.08 96 1005.8
20260506153054 16 205 0.0 0.0 0.05 0.05 0.05 94 1005.8
20260506152555 16 205 0.0 0.0 0.05 0.05 0.05 93 1005.7
20260506152055 16 196 0.0 0.0 0.05 0.05 0.05 91 1005.7
20260506151556 16 188 0.0 0.0 0.03 0.03 0.03 89 1005.7
20260506151126 16 217 0.0 0.0 0.03 0.03 0.03 87 1006.0
20260506150557 17 219 0.0 0.0 0.00 0.00 0.00 84 1006.1
20260506145557 17 208 0.0 0.0 0.00 0.00 0.00 80 1006.1
20260506145058 17 203 0.0 0.0 0.00 0.00 0.00 79 1006.1
20260506144558 17 210 0.0 0.0 0.00 0.00 0.00 79 1006.1
20260506144058 17 181 0.0 0.0 0.00 0.00 0.00 79 1006.2
20260506143559 17 206 0.0 0.0 0.00 0.00 0.00 79 1006.2
20260506143129 17 178 0.0 0.0 0.00 0.00 0.00 80 1006.2
20260506142600 17 199 0.0 0.0 0.00 0.00 0.00 80 1006.1
20260506142130 17 200 0.0 0.0 0.00 0.00 0.00 80 1006.1
20260506141600 17 210 0.0 0.0 0.00 0.00 0.00 79 1006.1
20260506141131 17 240 0.0 0.0 0.00 0.00 0.00 79 1006.0
20260506140603 17 223 0.0 0.0 0.00 0.00 0.00 79 1006.0
20260506135603 17 202 0.0 0.0 0.00 0.00 0.00 80 1006.2
20260506135103 17 193 0.0 0.0 0.00 0.00 0.00 80 1006.2
20260506134603 17 186 0.0 0.0 0.00 0.00 0.00 80 1006.2
20260506133604 17 209 0.0 0.0 0.00 0.00 0.00 80 1006.3
20260506132605 17 200 0.0 0.0 0.00 0.00 0.00 80 1006.4
20260506132105 17 219 0.0 0.0 0.00 0.00 0.00 80 1006.4
20260506131605 17 191 0.0 0.0 0.00 0.00 0.00 80 1006.4
20260506131136 17 185 0.0 0.0 0.00 0.00 0.00 81 1006.4
20260506130606 17 175 0.0 0.0 0.00 0.00 0.00 81 1006.4
20260506125607 17 186 0.0 0.0 0.00 0.00 0.00 81 1006.2
20260506125138 16 193 0.0 0.0 0.00 0.00 0.00 82 1006.2
20260506124609 17 205 0.0 0.0 0.00 0.00 0.00 82 1006.2
20260506124139 16 160 0.0 0.0 0.00 0.00 0.00 82 1006.0
20260506123609 16 202 0.0 0.0 0.00 0.00 0.00 82 1006.0
20260506123109 16 215 0.0 0.0 0.00 0.00 0.00 83 1006.0
20260506122610 16 216 0.0 0.0 0.00 0.00 0.00 84 1006.2
20260506122110 16 217 0.0 0.0 0.00 0.00 0.00 83 1006.2
20260506121610 16 213 0.0 0.0 0.00 0.00 0.00 83 1006.2
20260506121110 16 244 0.0 0.0 0.00 0.00 0.00 84 1006.3
20260506120611 16 216 0.0 0.0 0.00 0.00 0.00 84 1006.3
20260506115614 16 195 0.0 0.0 0.00 0.00 0.00 84 1006.4
20260506115113 16 213 0.0 0.0 0.00 0.00 0.00 84 1006.4
20260506114613 16 202 0.0 0.0 0.00 0.00 0.00 84 1006.4
20260506114114 16 209 0.0 0.0 0.00 0.00 0.00 84 1006.4
20260506112115 16 198 0.0 0.0 0.00 0.00 0.00 84 1006.3
20260506111616 16 184 0.0 0.0 0.00 0.00 0.00 84 1006.3
20260506111116 16 216 0.0 0.0 0.00 0.00 0.00 85 1006.3
20260506105618 16 186 0.0 0.0 0.00 0.00 0.00 86 1006.3
20260506105118 16 191 0.0 0.0 0.00 0.00 0.00 86 1006.3
20260506104618 16 203 0.0 0.0 0.00 0.00 0.00 86 1006.3
20260506104119 16 176 0.0 0.0 0.00 0.00 0.00 86 1006.2
20260506103619 16 199 0.0 0.0 0.00 0.00 0.00 87 1006.2
20260506103121 16 193 0.0 0.0 0.00 0.03 0.00 87 1006.2
20260506102619 16 184 0.0 0.0 0.00 0.03 0.00 87 1006.3
20260506102120 16 217 0.0 0.0 0.00 0.03 0.00 87 1006.3
20260506101620 16 212 0.0 0.0 0.00 0.03 0.00 87 1006.3
20260506101121 16 234 0.0 0.0 0.00 0.03 0.00 87 1006.2
20260506100621 16 174 0.0 0.0 0.00 0.03 0.00 87 1006.2
20260506094623 16 217 0.0 0.0 0.00 0.03 0.00 87 1006.0
20260506094123 16 210 0.0 0.0 0.00 0.03 0.00 87 1006.0
20260506093625 16 200 0.0 0.0 0.00 0.03 0.00 87 1006.0
20260506093054 16 215 0.0 0.0 0.00 0.03 0.00 87 1006.0
20260506092555 16 233 0.0 0.0 0.00 0.03 0.00 87 1006.3
20260506092125 16 203 0.0 0.0 0.00 0.03 0.00 86 1006.3
20260506091056 16 192 0.0 0.0 0.00 0.03 0.00 87 1006.3
20260506090559 16 182 0.0 0.0 0.00 0.03 0.00 87 1006.3
20260506085557 16 198 0.0 0.0 0.00 0.03 0.00 87 1006.4
20260506085128 15 168 0.0 0.0 0.00 0.03 0.00 87 1006.4
20260506084558 15 224 0.0 0.0 0.00 0.03 0.00 86 1006.4
20260506084128 15 193 0.0 0.0 0.00 0.03 0.00 86 1006.4
20260506083558 16 223 0.0 0.0 0.00 0.03 0.00 85 1006.4
20260506083059 16 179 0.0 0.0 0.00 0.03 0.00 85 1006.4
20260506082600 16 206 0.0 0.0 0.00 0.03 0.00 84 1006.4
20260506082100 16 220 0.0 0.0 0.00 0.03 0.00 84 1006.4
20260506081601 16 200 0.0 0.0 0.00 0.03 0.00 83 1006.4
20260506081101 16 191 0.0 0.0 0.00 0.03 0.00 82 1006.5
20260506080601 16 186 0.0 0.0 0.00 0.03 0.00 82 1006.5
20260506080132 16 206 0.0 0.0 0.00 0.03 0.00 81 1006.5
20260506073104 16 213 0.0 0.0 0.00 0.03 0.00 77 1006.6
20260506072605 16 236 0.0 0.0 0.00 0.03 0.00 76 1006.6
20260506072105 16 215 0.0 0.0 0.00 0.03 0.00 76 1006.6
20260506071607 16 215 0.0 0.0 0.00 0.03 0.00 75 1006.6
20260506071106 16 213 0.0 0.0 0.00 0.03 0.00 75 1006.7
20260506062122 17 205 0.0 0.0 0.00 0.03 0.00 70 1006.9
20260506061552 17 222 0.0 0.0 0.00 0.03 0.00 70 1006.9
20260506061053 17 205 0.0 0.0 0.00 0.03 0.00 69 1006.9
20260506060553 17 172 0.0 0.0 0.00 0.03 0.00 69 1006.9
20260506051057 17 203 0.0 0.0 0.00 0.03 0.00 66 1007.5
20260506050557 17 186 0.0 0.0 0.00 0.03 0.00 66 1007.5
20260506045058 17 205 0.0 0.0 0.00 0.03 0.00 65 1007.4
20260506044600 18 200 0.0 0.0 0.00 0.03 0.00 64 1007.4
20260506043559 18 215 0.0 0.0 0.00 0.03 0.00 64 1007.4
20260506043102 18 174 0.0 0.0 0.00 0.03 0.00 63 1007.4
20260506042600 18 219 0.0 0.0 0.00 0.03 0.00 63 1007.4
20260506042101 18 219 0.0 0.0 0.00 0.03 0.00 63 1007.4
20260506041101 18 199 0.0 0.0 0.00 0.03 0.00 63 1007.4
20260506035604 18 169 0.0 0.0 0.00 0.03 0.03 62 1007.3
20260506034603 18 215 0.0 0.0 0.00 0.03 0.03 62 1007.3
20260506034122 18 223 0.0 0.0 0.00 0.03 0.03 62 1007.4
20260506033604 18 217 0.0 0.0 0.00 0.03 0.03 61 1007.4
20260506033105 18 213 0.0 0.0 0.00 0.03 0.03 61 1007.4
20260506032605 18 196 0.0 0.0 0.00 0.03 0.03 60 1007.3
20260506032105 18 175 0.0 0.0 0.00 0.03 0.03 60 1007.3
20260506031106 19 208 0.0 0.0 0.00 0.03 0.03 59 1007.4
20260506025607 19 215 0.0 0.0 0.00 0.03 0.03 57 1007.2
20260506025109 20 210 0.0 0.0 0.00 0.03 0.03 56 1007.2
20260506024608 20 220 0.0 0.0 0.00 0.03 0.03 55 1007.2
20260506023110 20 138 0.0 0.0 0.00 0.03 0.03 52 1007.2
20260506022611 20 169 0.0 0.0 0.00 0.03 0.03 51 1007.2
20260506022110 20 215 0.0 0.0 0.00 0.03 0.03 50 1007.2
20260506021112 20 200 0.0 0.0 0.00 0.03 0.03 47 1006.9
20260506020612 21 219 0.0 0.0 0.00 0.03 0.03 46 1006.9
20260506015613 21 199 0.0 0.0 0.00 0.03 0.03 45 1006.9
20260506015113 21 212 0.0 0.0 0.00 0.03 0.03 45 1006.9
20260506014613 21 226 0.0 0.0 0.00 0.03 0.03 45 1006.9
20260506014113 21 206 0.0 0.0 0.00 0.03 0.03 45 1006.8
20260506013614 21 200 0.0 0.0 0.00 0.03 0.03 44 1006.8
20260506013114 21 192 0.0 0.0 0.00 0.03 0.03 45 1006.8
20260506012615 21 210 0.0 0.0 0.00 0.03 0.03 45 1006.7
20260506012115 21 208 0.0 0.0 0.00 0.03 0.03 44 1006.7
20260506011617 21 202 0.0 0.0 0.00 0.03 0.03 45 1006.7
20260506011116 21 202 0.0 0.0 0.00 0.03 0.03 45 1006.4
20260506010616 21 212 0.0 0.0 0.00 0.03 0.03 44 1006.4
20260506005617 22 213 0.0 0.0 0.00 0.03 0.03 43 1006.3
20260506005117 22 200 0.0 0.0 0.00 0.03 0.03 43 1006.3
20260506004617 22 209 0.0 0.0 0.00 0.03 0.03 42 1006.3
20260506004118 22 213 0.0 0.0 0.00 0.03 0.03 41 1006.1
20260506003619 22 202 0.0 0.0 0.00 0.03 0.03 41 1006.1
20260506003119 22 222 0.0 0.0 0.00 0.03 0.03 40 1006.1
20260506002619 22 203 0.0 0.0 0.00 0.03 0.03 40 1006.0
20260506002121 22 216 0.0 0.0 0.00 0.03 0.03 39 1006.0
20260506001619 22 172 0.0 0.0 0.00 0.03 0.03 39 1006.0
20260506000620 22 229 0.0 0.0 0.00 0.03 0.03 38 1005.8
20260505235551 23 229 0.0 0.0 0.00 0.03 0.03 37 1005.6
20260505235122 23 208 0.0 0.0 0.00 0.03 0.03 37 1005.6
20260505234622 23 206 0.0 0.0 0.00 0.03 0.03 36 1005.6
20260505234123 23 223 0.0 0.0 0.00 0.03 0.03 36 1005.6
20260505233553 23 206 0.0 0.0 0.00 0.03 0.03 36 1005.6
20260505233054 23 208 0.0 0.0 0.00 0.03 0.03 36 1005.7
20260505232554 23 216 0.0 0.0 0.00 0.03 0.03 36 1005.5
20260505232054 23 213 0.0 0.0 0.00 0.03 0.03 36 1005.5
20260505231126 23 200 0.0 0.0 0.00 0.03 0.03 35 1005.4
20260505230556 23 168 0.0 0.0 0.00 0.03 0.03 35 1005.4
20260505225556 23 219 0.0 0.0 0.00 0.03 0.03 34 1005.0
20260505225057 24 206 0.0 0.0 0.00 0.03 0.03 34 1005.0
20260505224557 24 220 0.0 0.0 0.00 0.03 0.03 34 1005.0
20260505224057 24 210 0.0 0.0 0.00 0.03 0.03 33 1004.9
20260505222101 25 210 0.0 0.0 0.00 0.03 0.03 32 1005.0
20260505220600 25 246 0.0 0.0 0.00 0.03 0.03 31 1005.0
20260505215601 25 200 0.0 0.0 0.00 0.03 0.03 32 1004.8
20260505215102 25 196 0.0 0.0 0.00 0.03 0.03 33 1004.8
20260505214102 25 237 0.0 0.0 0.00 0.03 0.03 32 1004.8
20260505212604 25 206 0.0 0.0 0.00 0.03 0.03 32 1004.6